KLM68B EGPF-EHAM

Flight info

Callsign KLM68B
Flight time 1h 11m
Altitude 37000
Route NORBO Y96 HAVEN DCT ERKIT N110 DOLAS L603 LAMSO
Aircraft B738/M-SDE2E3FGHIRWXY/LB1

Departure

Time 2026-05-07 12:09
Airport Glasgow Airport (EGPF)

Arrival

Time 2026-05-07 13:20
Airport Amsterdam Airport Schiphol (EHAM)
Time Latitude Longitude Altitude Speed Heading
2026-05-07 11:25 55.86640 -4.43742 28 ft 0 kts 253°
2026-05-07 11:53 55.86640 -4.43739 28 ft 2 kts 253°
2026-05-07 11:53 55.86646 -4.43698 28 ft 4 kts 265°
2026-05-07 11:54 55.86644 -4.43662 28 ft 4 kts 314°
2026-05-07 11:54 55.86636 -4.43651 28 ft 4 kts 344°
2026-05-07 11:54 55.86658 -4.43663 28 ft 3 kts 344°
2026-05-07 11:54 55.86667 -4.43668 28 ft 1 kts 344°
2026-05-07 11:57 55.86669 -4.43669 28 ft 1 kts 344°
2026-05-07 11:57 55.86693 -4.43671 28 ft 7 kts 359°
2026-05-07 11:58 55.86754 -4.43618 28 ft 12 kts 69°
2026-05-07 11:58 55.86780 -4.43455 28 ft 15 kts 75°
2026-05-07 11:58 55.86810 -4.43265 28 ft 17 kts 73°
2026-05-07 11:58 55.86844 -4.43055 28 ft 18 kts 74°
2026-05-07 11:59 55.86906 -4.42930 28 ft 13 kts 25°
2026-05-07 11:59 55.86988 -4.42861 28 ft 13 kts 24°
2026-05-07 11:59 55.87075 -4.42802 28 ft 14 kts 20°
2026-05-07 11:59 55.87175 -4.42735 28 ft 17 kts 22°
2026-05-07 12:00 55.87269 -4.42666 28 ft 16 kts 21°
2026-05-07 12:00 55.87385 -4.42587 28 ft 19 kts 30°
2026-05-07 12:00 55.87487 -4.42408 28 ft 22 kts 46°
2026-05-07 12:00 55.87575 -4.42243 28 ft 18 kts 46°
2026-05-07 12:01 55.87661 -4.42082 28 ft 18 kts 46°
2026-05-07 12:01 55.87714 -4.41983 28 ft 7 kts 46°
2026-05-07 12:01 55.87749 -4.41920 28 ft 7 kts 45°
2026-05-07 12:01 55.87793 -4.41869 28 ft 8 kts 18°
2026-05-07 12:02 55.87841 -4.41850 28 ft 4 kts
2026-05-07 12:02 55.87850 -4.41850 28 ft 0 kts
2026-05-07 12:03 55.87851 -4.41850 28 ft 0 kts
2026-05-07 12:04 55.87852 -4.41850 28 ft 0 kts
2026-05-07 12:04 55.87855 -4.41850 28 ft 1 kts
2026-05-07 12:04 55.87860 -4.41850 28 ft 1 kts
2026-05-07 12:04 55.87862 -4.41850 28 ft 0 kts
2026-05-07 12:07 55.87863 -4.41850 28 ft 0 kts
2026-05-07 12:07 55.87878 -4.41852 28 ft 5 kts 352°
2026-05-07 12:08 55.87919 -4.41961 28 ft 17 kts 264°
2026-05-07 12:08 55.87817 -4.42166 28 ft 39 kts 226°
2026-05-07 12:08 55.87430 -4.42892 28 ft 118 kts 226°
2026-05-07 12:08 55.86746 -4.44231 151 ft 165 kts 230°
2026-05-07 12:09 55.86044 -4.45913 875 ft 173 kts 232°
2026-05-07 12:09 55.85320 -4.47626 1716 ft 175 kts 229°
2026-05-07 12:09 55.84496 -4.49304 2277 ft 193 kts 223°
2026-05-07 12:09 55.83446 -4.51058 2510 ft 220 kts 219°
2026-05-07 12:10 55.82259 -4.52915 2893 ft 238 kts 219°
2026-05-07 12:10 55.81001 -4.54935 3431 ft 249 kts 220°
2026-05-07 12:10 55.79733 -4.57012 4361 ft 248 kts 221°
2026-05-07 12:10 55.78450 -4.59126 5131 ft 250 kts 222°
2026-05-07 12:11 55.77176 -4.61230 5769 ft 260 kts 223°
2026-05-07 12:11 55.75804 -4.63478 6063 ft 280 kts 223°
2026-05-07 12:11 55.74347 -4.66020 6075 ft 305 kts 225°
2026-05-07 12:11 55.72810 -4.68809 6071 ft 327 kts 225°
2026-05-07 12:12 55.71166 -4.71752 6049 ft 344 kts 224°
2026-05-07 12:12 55.69354 -4.74650 6034 ft 358 kts 216°
2026-05-07 12:12 55.67104 -4.76316 6024 ft 351 kts 189°
2026-05-07 12:12 55.64747 -4.76330 6027 ft 330 kts 178°
2026-05-07 12:13 55.62530 -4.76161 6023 ft 308 kts 176°
2026-05-07 12:13 55.60564 -4.75026 6021 ft 293 kts 146°
2026-05-07 12:13 55.59321 -4.72319 6068 ft 284 kts 112°
2026-05-07 12:13 55.59032 -4.68984 6285 ft 273 kts 95°
2026-05-07 12:14 55.58877 -4.65683 6619 ft 273 kts 97°
2026-05-07 12:14 55.58681 -4.62288 7348 ft 281 kts 97°
2026-05-07 12:14 55.58475 -4.58884 8274 ft 283 kts 97°
2026-05-07 12:14 55.58259 -4.55383 9190 ft 288 kts 97°
2026-05-07 12:15 55.58034 -4.51838 10089 ft 293 kts 97°
2026-05-07 12:15 55.57798 -4.48159 10607 ft 313 kts 97°
2026-05-07 12:15 55.57542 -4.44215 10814 ft 340 kts 97°
2026-05-07 12:15 55.57263 -4.39959 11375 ft 353 kts 97°
2026-05-07 12:16 55.56978 -4.35639 12232 ft 357 kts 97°
2026-05-07 12:16 55.56688 -4.31271 13125 ft 362 kts 97°
2026-05-07 12:16 55.56389 -4.26804 13964 ft 369 kts 97°
2026-05-07 12:16 55.56187 -4.23794 14481 ft 373 kts 97°
2026-05-07 12:17 55.55772 -4.17669 15620 ft 379 kts 97°
2026-05-07 12:17 55.55563 -4.14589 16194 ft 382 kts 97°
2026-05-07 12:17 55.55242 -4.09904 17044 ft 387 kts 98°
2026-05-07 12:17 55.54916 -4.05162 17862 ft 392 kts 98°
2026-05-07 12:18 55.54583 -4.00344 18631 ft 397 kts 98°
2026-05-07 12:18 55.54279 -3.95984 19263 ft 402 kts 98°
2026-05-07 12:18 55.54096 -3.93352 19654 ft 404 kts 98°
2026-05-07 12:18 55.53752 -3.88445 20370 ft 407 kts 98°
2026-05-07 12:19 55.53398 -3.83430 21082 ft 412 kts 98°
2026-05-07 12:19 55.53040 -3.78386 21776 ft 416 kts 98°
2026-05-07 12:19 55.52680 -3.73348 22434 ft 420 kts 98°
2026-05-07 12:19 55.52311 -3.68207 23097 ft 425 kts 98°
2026-05-07 12:20 55.51936 -3.63004 23724 ft 429 kts 98°
2026-05-07 12:20 55.51554 -3.57750 24271 ft 433 kts 98°
2026-05-07 12:20 55.51168 -3.52464 24817 ft 436 kts 98°
2026-05-07 12:20 55.50776 -3.47116 25194 ft 443 kts 98°
2026-05-07 12:21 55.50380 -3.41752 25564 ft 450 kts 98°
2026-05-07 12:21 55.49973 -3.36272 25985 ft 455 kts 98°
2026-05-07 12:21 55.49502 -3.30679 26092 ft 466 kts 101°
2026-05-07 12:21 55.48899 -3.25109 26387 ft 471 kts 102°
2026-05-07 12:22 55.48239 -3.19357 26883 ft 472 kts 102°
2026-05-07 12:22 55.47612 -3.13720 27380 ft 473 kts 102°
2026-05-07 12:22 55.46990 -3.08024 27801 ft 475 kts 103°
2026-05-07 12:22 55.46006 -3.02463 28011 ft 480 kts 115°
2026-05-07 12:23 55.44341 -2.97405 28504 ft 476 kts 127°
2026-05-07 12:23 55.42509 -2.93584 28810 ft 476 kts 138°
2026-05-07 12:23 55.40945 -2.91080 29065 ft 476 kts 141°
2026-05-07 12:23 55.38451 -2.87242 29481 ft 477 kts 141°
2026-05-07 12:24 55.35946 -2.83401 29830 ft 479 kts 141°
2026-05-07 12:24 55.33431 -2.79526 30031 ft 483 kts 141°
2026-05-07 12:24 55.30907 -2.75610 30206 ft 485 kts 140°
2026-05-07 12:24 55.28381 -2.71669 30420 ft 486 kts 140°
2026-05-07 12:25 55.25867 -2.67732 30703 ft 484 kts 140°
2026-05-07 12:25 55.23356 -2.63796 30989 ft 483 kts 140°
2026-05-07 12:25 55.20887 -2.59929 31301 ft 481 kts 140°
2026-05-07 12:25 55.18399 -2.56041 31600 ft 479 kts 140°
2026-05-07 12:26 55.15915 -2.52167 31875 ft 478 kts 140°
2026-05-07 12:26 55.13427 -2.48294 32134 ft 478 kts 140°
2026-05-07 12:26 55.10941 -2.44434 32406 ft 477 kts 140°
2026-05-07 12:26 55.08458 -2.40585 32672 ft 476 kts 140°
2026-05-07 12:27 55.05986 -2.36760 32961 ft 474 kts 140°
2026-05-07 12:27 55.03520 -2.32952 33236 ft 473 kts 141°
2026-05-07 12:27 55.01046 -2.29137 33497 ft 473 kts 141°
2026-05-07 12:27 54.98630 -2.25417 33742 ft 472 kts 141°
2026-05-07 12:28 54.96161 -2.21624 34068 ft 469 kts 141°
2026-05-07 12:28 54.94140 -2.18522 34288 ft 468 kts 141°
2026-05-07 12:28 54.92523 -2.16045 34409 ft 468 kts 141°
2026-05-07 12:28 54.90073 -2.12297 34519 ft 470 kts 141°
2026-05-07 12:29 54.87622 -2.08553 34677 ft 471 kts 141°
2026-05-07 12:29 54.85159 -2.04798 34876 ft 471 kts 141°
2026-05-07 12:29 54.82702 -2.01057 35065 ft 471 kts 141°
2026-05-07 12:29 54.80236 -1.97309 35213 ft 471 kts 141°
2026-05-07 12:30 54.77772 -1.93568 35418 ft 471 kts 141°
2026-05-07 12:30 54.75301 -1.89826 35598 ft 471 kts 141°
2026-05-07 12:30 54.72835 -1.86096 35771 ft 472 kts 141°
2026-05-07 12:30 54.70363 -1.82364 35975 ft 471 kts 141°
2026-05-07 12:31 54.67893 -1.78641 36189 ft 471 kts 141°
2026-05-07 12:31 54.65439 -1.74949 36351 ft 471 kts 141°
2026-05-07 12:31 54.62963 -1.71231 36509 ft 472 kts 141°
2026-05-07 12:31 54.60474 -1.67498 36684 ft 472 kts 141°
2026-05-07 12:32 54.58077 -1.63909 36878 ft 472 kts 141°
2026-05-07 12:32 54.55628 -1.60248 37039 ft 472 kts 141°
2026-05-07 12:32 54.53142 -1.56538 37071 ft 474 kts 141°
2026-05-07 12:33 54.46191 -1.46198 37068 ft 471 kts 141°
2026-05-07 12:33 54.41918 -1.39864 37068 ft 470 kts 141°
2026-05-07 12:34 54.36977 -1.32566 37054 ft 470 kts 141°
2026-05-07 12:34 54.32048 -1.25307 37051 ft 470 kts 141°
2026-05-07 12:35 54.27107 -1.18056 37057 ft 470 kts 141°
2026-05-07 12:35 54.22128 -1.10771 37043 ft 470 kts 141°
2026-05-07 12:36 54.17173 -1.03546 37047 ft 469 kts 141°
2026-05-07 12:36 54.12199 -0.96315 37048 ft 469 kts 141°
2026-05-07 12:37 54.07248 -0.89138 37067 ft 469 kts 141°
2026-05-07 12:37 54.02307 -0.82068 37056 ft 468 kts 144°
2026-05-07 12:38 53.97673 -0.76476 37063 ft 466 kts 148°
2026-05-07 12:38 53.93174 -0.71354 37060 ft 466 kts 148°
2026-05-07 12:39 53.87804 -0.65179 37055 ft 466 kts 147°
2026-05-07 12:39 53.82464 -0.58963 37059 ft 466 kts 147°
2026-05-07 12:40 53.77162 -0.52788 37068 ft 465 kts 147°
2026-05-07 12:40 53.71826 -0.46598 37068 ft 465 kts 147°
2026-05-07 12:41 53.66483 -0.40444 37074 ft 464 kts 147°
2026-05-07 12:41 53.61151 -0.34344 37075 ft 464 kts 147°
2026-05-07 12:42 53.56228 -0.27340 37072 ft 466 kts 132°
2026-05-07 12:42 53.52341 -0.18692 37068 ft 467 kts 127°
2026-05-07 12:43 53.49039 -0.11165 37068 ft 467 kts 128°
2026-05-07 12:43 53.45650 -0.03559 37067 ft 467 kts 128°
2026-05-07 12:44 53.41729 0.05130 37093 ft 474 kts 130°
2026-05-07 12:44 53.37694 0.14018 37066 ft 482 kts 130°
2026-05-07 12:45 53.33615 0.22982 37060 ft 484 kts 130°
2026-05-07 12:45 53.29534 0.31928 37049 ft 482 kts 130°
2026-05-07 12:46 53.25488 0.40765 37061 ft 482 kts 130°
2026-05-07 12:46 53.21402 0.49641 37062 ft 482 kts 130°
2026-05-07 12:47 53.17311 0.58488 37061 ft 481 kts 130°
2026-05-07 12:47 53.15295 0.62842 37049 ft 470 kts 130°
2026-05-07 12:47 53.13316 0.67113 37052 ft 462 kts 130°
2026-05-07 12:48 53.10012 0.74216 37064 ft 459 kts 130°
2026-05-07 12:48 53.06541 0.81658 37069 ft 458 kts 130°
2026-05-07 12:49 53.02630 0.90022 37067 ft 458 kts 130°
2026-05-07 12:49 52.98933 0.98607 37059 ft 460 kts 120°
2026-05-07 12:50 52.96775 1.08619 37077 ft 464 kts 102°
2026-05-07 12:50 52.95601 1.19117 37072 ft 465 kts 101°
2026-05-07 12:51 52.94437 1.29683 37075 ft 466 kts 102°
2026-05-07 12:51 52.93227 1.40179 37078 ft 467 kts 102°
2026-05-07 12:52 52.92604 1.45459 36837 ft 471 kts 102°
2026-05-07 12:52 52.91967 1.50809 36263 ft 471 kts 102°
2026-05-07 12:52 52.91332 1.56112 35606 ft 468 kts 102°
2026-05-07 12:52 52.90694 1.61424 34900 ft 468 kts 102°
2026-05-07 12:53 52.90060 1.66688 34190 ft 468 kts 102°
2026-05-07 12:53 52.89647 1.70106 33641 ft 468 kts 102°
2026-05-07 12:53 52.89097 1.74645 32904 ft 468 kts 102°
2026-05-07 12:53 52.88456 1.79915 32102 ft 467 kts 102°
2026-05-07 12:54 52.87814 1.85179 31513 ft 462 kts 102°
2026-05-07 12:54 52.87181 1.90349 30924 ft 457 kts 103°
2026-05-07 12:54 52.86559 1.95413 30364 ft 451 kts 103°
2026-05-07 12:54 52.85934 2.00477 29743 ft 447 kts 103°
2026-05-07 12:55 52.85312 2.05497 29151 ft 441 kts 103°
2026-05-07 12:55 52.84699 2.10434 28577 ft 436 kts 103°
2026-05-07 12:55 52.84095 2.15275 28013 ft 431 kts 103°
2026-05-07 12:55 52.83490 2.20104 27442 ft 427 kts 103°
2026-05-07 12:56 52.82890 2.24876 26887 ft 423 kts 103°
2026-05-07 12:56 52.82291 2.29625 26323 ft 420 kts 103°
2026-05-07 12:56 52.81701 2.34290 25775 ft 418 kts 103°
2026-05-07 12:56 52.81106 2.38977 25226 ft 415 kts 103°
2026-05-07 12:57 52.80512 2.43649 24689 ft 413 kts 103°
2026-05-07 12:57 52.79923 2.48264 24148 ft 411 kts 103°
2026-05-07 12:57 52.79330 2.52878 23597 ft 409 kts 104°
2026-05-07 12:57 52.78748 2.57387 23207 ft 402 kts 104°
2026-05-07 12:58 52.78172 2.61833 23112 ft 389 kts 104°
2026-05-07 12:58 52.77825 2.64508 23099 ft 382 kts 104°
2026-05-07 12:58 52.77353 2.68141 23083 ft 370 kts 104°
2026-05-07 12:58 52.76824 2.72202 22909 ft 362 kts 104°
2026-05-07 12:59 52.76294 2.76243 22526 ft 358 kts 104°
2026-05-07 12:59 52.75766 2.80261 22053 ft 358 kts 104°
2026-05-07 12:59 52.75253 2.84229 21630 ft 356 kts 104°
2026-05-07 12:59 52.74746 2.88189 21246 ft 353 kts 104°
2026-05-07 13:00 52.74238 2.92144 20857 ft 351 kts 104°
2026-05-07 13:00 52.73729 2.96084 20452 ft 349 kts 104°
2026-05-07 13:00 52.73140 2.99951 20058 ft 345 kts 114°
2026-05-07 13:00 52.72023 3.03419 19666 ft 340 kts 123°
2026-05-07 13:01 52.70814 3.06772 19270 ft 339 kts 123°
2026-05-07 13:01 52.69612 3.10091 18874 ft 339 kts 123°
2026-05-07 13:01 52.68426 3.13394 18508 ft 337 kts 122°
2026-05-07 13:01 52.67242 3.16719 18116 ft 336 kts 122°
2026-05-07 13:02 52.66082 3.19997 17773 ft 332 kts 122°
2026-05-07 13:02 52.64935 3.23245 17365 ft 330 kts 122°
2026-05-07 13:02 52.63780 3.26519 16942 ft 330 kts 122°
2026-05-07 13:02 52.62626 3.29791 16526 ft 329 kts 122°
2026-05-07 13:03 52.61476 3.33046 16120 ft 327 kts 122°
2026-05-07 13:03 52.60821 3.34900 15939 ft 325 kts 122°
2026-05-07 13:03 52.59797 3.37790 15641 ft 322 kts 122°
2026-05-07 13:03 52.58705 3.40938 15321 ft 320 kts 117°
2026-05-07 13:04 52.58215 3.43286 14964 ft 324 kts 101°
2026-05-07 13:04 52.57726 3.48101 14486 ft 322 kts 99°
2026-05-07 13:04 52.57371 3.51709 14229 ft 317 kts 99°
2026-05-07 13:04 52.57131 3.54107 14082 ft 313 kts 99°
2026-05-07 13:05 52.56775 3.57590 13625 ft 314 kts 99°
2026-05-07 13:05 52.56408 3.61111 13212 ft 314 kts 99°
2026-05-07 13:05 52.56039 3.64600 12926 ft 309 kts 99°
2026-05-07 13:05 52.55668 3.68075 12634 ft 305 kts 99°
2026-05-07 13:06 52.55298 3.71524 12201 ft 306 kts 99°
2026-05-07 13:06 52.54927 3.74965 11821 ft 305 kts 99°
2026-05-07 13:06 52.54558 3.78371 11560 ft 300 kts 99°
2026-05-07 13:06 52.54193 3.81729 11236 ft 298 kts 99°
2026-05-07 13:07 52.53827 3.85092 10858 ft 298 kts 99°
2026-05-07 13:07 52.53462 3.88442 10516 ft 297 kts 99°
2026-05-07 13:07 52.53108 3.91664 10248 ft 293 kts 99°
2026-05-07 13:07 52.52748 3.94940 9931 ft 291 kts 98°
2026-05-07 13:08 52.52293 3.98197 9630 ft 299 kts 107°
2026-05-07 13:08 52.51560 4.01427 9655 ft 300 kts 110°
2026-05-07 13:08 52.50771 4.04558 9599 ft 292 kts 111°
2026-05-07 13:08 52.49995 4.07593 9344 ft 286 kts 112°
2026-05-07 13:09 52.49280 4.10605 8927 ft 285 kts 112°
2026-05-07 13:09 52.48251 4.13460 8466 ft 289 kts 126°
2026-05-07 13:09 52.46983 4.15926 8374 ft 276 kts 119°
2026-05-07 13:09 52.46117 4.18658 8197 ft 267 kts 121°
2026-05-07 13:10 52.44813 4.20824 7923 ft 268 kts 140°
2026-05-07 13:10 52.43319 4.22656 7591 ft 268 kts 140°
2026-05-07 13:10 52.41874 4.24503 7283 ft 267 kts 141°
2026-05-07 13:10 52.40386 4.26277 7125 ft 259 kts 142°
2026-05-07 13:11 52.38939 4.27955 7053 ft 249 kts 142°
2026-05-07 13:11 52.37552 4.29568 6945 ft 240 kts 142°
2026-05-07 13:11 52.36204 4.31125 6596 ft 237 kts 141°
2026-05-07 13:11 52.34851 4.32631 6358 ft 229 kts 142°
2026-05-07 13:12 52.33562 4.34043 6172 ft 218 kts 143°
2026-05-07 13:12 52.32330 4.35416 5848 ft 216 kts 142°
2026-05-07 13:12 52.31089 4.36798 5491 ft 215 kts 142°
2026-05-07 13:12 52.29846 4.38156 5152 ft 214 kts 142°
2026-05-07 13:13 52.28604 4.39493 4795 ft 214 kts 143°
2026-05-07 13:13 52.27191 4.40296 4397 ft 222 kts 174°
2026-05-07 13:13 52.25657 4.40171 4127 ft 218 kts 182°
2026-05-07 13:13 52.24205 4.39955 4040 ft 206 kts 182°
2026-05-07 13:14 52.22812 4.39738 3872 ft 198 kts 182°
2026-05-07 13:14 52.21489 4.39832 3732 ft 183 kts 154°
2026-05-07 13:14 52.20525 4.41078 3318 ft 179 kts 114°
2026-05-07 13:14 52.20216 4.42994 3034 ft 173 kts 93°
2026-05-07 13:15 52.20076 4.44792 2815 ft 171 kts 92°
2026-05-07 13:15 52.19929 4.46741 2448 ft 176 kts 92°
2026-05-07 13:15 52.19908 4.48747 2033 ft 177 kts 70°
2026-05-07 13:15 52.20421 4.50461 1990 ft 172 kts 60°
2026-05-07 13:16 52.20961 4.52240 1955 ft 174 kts 61°
2026-05-07 13:16 52.21484 4.53990 1933 ft 170 kts 61°
2026-05-07 13:16 52.21998 4.55696 1922 ft 166 kts 62°
2026-05-07 13:16 52.22530 4.57375 1942 ft 168 kts 58°
2026-05-07 13:17 52.23131 4.59033 1943 ft 170 kts 57°
2026-05-07 13:17 52.23737 4.60695 1790 ft 170 kts 57°
2026-05-07 13:17 52.24335 4.62341 1513 ft 172 kts 57°
2026-05-07 13:17 52.24952 4.64021 1320 ft 172 kts 57°
2026-05-07 13:18 52.25583 4.65573 1246 ft 158 kts 53°
2026-05-07 13:18 52.26171 4.67074 1091 ft 158 kts 51°
2026-05-07 13:18 52.26826 4.68520 855 ft 162 kts 51°
2026-05-07 13:18 52.27468 4.70039 705 ft 162 kts 53°
2026-05-07 13:19 52.28055 4.71553 390 ft 154 kts 56°
2026-05-07 13:19 52.28632 4.72972 158 ft 147 kts 56°
2026-05-07 13:19 52.29152 4.74342 14 ft 134 kts 57°
2026-05-07 13:19 52.29589 4.75478 -3 ft 92 kts 59°
2026-05-07 13:20 52.29852 4.76172 -5 ft 53 kts 58°
2026-05-07 13:20 52.30023 4.76518 -3 ft 26 kts 39°
2026-05-07 13:20 52.30142 4.76636 -2 ft 8 kts 26°
2026-05-07 13:20 52.30191 4.76679 -2 ft 8 kts 30°
2026-05-07 13:21 52.30240 4.76723 -2 ft 8 kts 26°
2026-05-07 13:21 52.30293 4.76778 -2 ft 10 kts 45°
2026-05-07 13:21 52.30333 4.76878 -2 ft 12 kts 59°
2026-05-07 13:21 52.30378 4.76998 -2 ft 13 kts 57°
2026-05-07 13:22 52.30408 4.77075 -2 ft 9 kts 58°
2026-05-07 13:22 52.30441 4.77159 -2 ft 10 kts 58°
2026-05-07 13:22 52.30480 4.77262 -2 ft 12 kts 58°
2026-05-07 13:22 52.30526 4.77381 -2 ft 13 kts 58°
2026-05-07 13:23 52.30573 4.77500 -2 ft 12 kts 55°
2026-05-07 13:23 52.30641 4.77580 -2 ft 13 kts 15°
2026-05-07 13:23 52.30722 4.77593 -2 ft 6 kts
2026-05-07 13:23 52.30759 4.77597 -2 ft 5 kts
2026-05-07 13:24 52.30769 4.77598 -2 ft 2 kts
2026-05-07 13:24 52.30776 4.77599 -2 ft 2 kts
2026-05-07 13:24 52.30786 4.77600 -2 ft 0 kts
2026-05-07 13:24 52.30792 4.77600 -2 ft 3 kts 357°
2026-05-07 13:25 52.30828 4.77549 -2 ft 12 kts 294°
2026-05-07 13:25 52.30837 4.77420 -2 ft 11 kts 274°
2026-05-07 13:25 52.30839 4.77334 -2 ft 4 kts 271°
2026-05-07 13:25 52.30849 4.77300 -2 ft 3 kts 340°
2026-05-07 13:26 52.30873 4.77300 -2 ft 4 kts
2026-05-07 13:26 52.30890 4.77302 -2 ft 2 kts
2026-05-07 13:26 52.30895 4.77302 -2 ft 0 kts